Weather in Kaduna

Nigeria     10°32′31″N   7°17′36″E
temp.,
°C
wind,
m/s
gust,
m/s
humid.,
%
clouds,
%
prec.,
mm/h
press.,
hPa
HPBL,
m
23 april, fri
fri2301:00+25ssw266011 0.0 1009129
04:00+24ssw226341 0.0 100823
07:00+24ssw2560100 0.0 1010173
10:00+30ssw4546100 0.0 1011994
13:00+37w2426100 0.0 10082549
16:00+38nw2319100 0.0 10043532
19:00+31wsw353763 0.0 100599
22:00+24s3668100 0.0 1009129
24 april, sat
sat2401:00+25sw4961100 0.0 1008465
04:00+23ssw2871100 0.0 1009358
07:00+23s387568 0.0 1010353
10:00+31sw454593 0.0 1010945
13:00+35sw4434100 0.0 10082098
16:00+36ssw4428100 0.0 10042487
19:00+25sw5969100 5.0 1008227
22:00+25s386796 0.1 1009184
25 april, sun
sun2501:00+23sw3774100 0.1 1010228
04:00+23sw41181100 0.0 1009551
07:00+23ssw398297 0.0 1010394
10:00+30sw465296 0.0 1011960
13:00+35wsw3333100 0.0 10082361
16:00+37sw432694 0.0 10041829
19:00+25ne145797 1.6 1009148
22:00+23sw3677100 0.9 1011348
26 april, mon
mon2601:00+23ssw2567100 0.9 1009147
04:00+24s116186 0.0 100811
07:00+23wsw2563100 0.0 1010147
10:00+31sw2239100 0.0 1012866
13:00+35wsw322961 0.0 10081896
16:00+36sw442516 0.0 10052394
19:00+26wnw595845 0.2 1008347
22:00+25ssw255958 0.0 1008100
27 april, tue
tue2701:00+25ssw396275 0.0 1009271
04:00+24ssw276999 0.0 1008184
07:00+25ssw4107683 0.0 1010559
10:00+30sw455352 0.0 10111027
13:00+36sw433418 0.0 10082332
16:00+30sw6753100 0.5 1005435
19:00+22nw3484100 8.4 1009180
22:00+22sw4978100 6.4 1010264